ACA664 CYUL-CYHZ

Flight info

Callsign ACA664
Flight time N/A
Altitude 41000
Route SUXET DCT NOVUN DCT ESRAM DCT RABIK Q951 ANTOV DCT EBONY FUNDY5
Aircraft A333/H-SDE3GHIJ2J3J5M1RVWXY/LB2D1

Departure

Time 2026-05-04 05:21
Airport Montreal / Pierre Elliott Trudeau International Airport (CYUL)

Arrival

Time N/A
Airport Halifax / Stanfield International Airport (CYHZ)
Time Latitude Longitude Altitude Speed Heading
2026-05-04 05:06 45.45929 -73.75136 109 ft 0 kts 178°
2026-05-04 05:11 45.45947 -73.75137 106 ft 4 kts 182°
2026-05-04 05:11 45.45973 -73.75132 107 ft 4 kts 196°
2026-05-04 05:11 45.45997 -73.75117 107 ft 4 kts 226°
2026-05-04 05:12 45.46006 -73.75093 109 ft 1 kts 271°
2026-05-04 05:12 45.46006 -73.75118 109 ft 4 kts 271°
2026-05-04 05:12 45.46006 -73.75131 109 ft 4 kts 269°
2026-05-04 05:14 45.46006 -73.75133 109 ft 2 kts 269°
2026-05-04 05:14 45.46016 -73.75222 107 ft 10 kts 290°
2026-05-04 05:14 45.46045 -73.75318 108 ft 11 kts 293°
2026-05-04 05:14 45.46082 -73.75375 107 ft 0 kts 320°
2026-05-04 05:15 45.46093 -73.75382 107 ft 4 kts 341°
2026-05-04 05:15 45.46124 -73.75376 106 ft 3 kts 19°
2026-05-04 05:15 45.46128 -73.75374 105 ft 2 kts 22°
2026-05-04 05:16 45.46140 -73.75363 105 ft 3 kts 36°
2026-05-04 05:16 45.46154 -73.75305 107 ft 11 kts 80°
2026-05-04 05:16 45.46163 -73.75243 104 ft 0 kts 73°
2026-05-04 05:16 45.46165 -73.75224 106 ft 7 kts 80°
2026-05-04 05:17 45.46167 -73.75190 107 ft 0 kts 88°
2026-05-04 05:17 45.46167 -73.75188 107 ft 2 kts 90°
2026-05-04 05:17 45.46160 -73.75122 107 ft 10 kts 98°
2026-05-04 05:17 45.46154 -73.74988 108 ft 16 kts 92°
2026-05-04 05:18 45.46157 -73.74790 108 ft 23 kts 86°
2026-05-04 05:18 45.46159 -73.74615 107 ft 10 kts 104°
2026-05-04 05:18 45.46135 -73.74541 107 ft 5 kts 108°
2026-05-04 05:18 45.46130 -73.74434 107 ft 18 kts 96°
2026-05-04 05:19 45.46109 -73.74293 107 ft 5 kts 98°
2026-05-04 05:19 45.46108 -73.74285 107 ft 0 kts 96°
2026-05-04 05:19 45.46110 -73.74273 107 ft 3 kts 81°
2026-05-04 05:19 45.46125 -73.74218 107 ft 10 kts 72°
2026-05-04 05:20 45.46144 -73.74087 107 ft 6 kts 83°
2026-05-04 05:20 45.46153 -73.74037 106 ft 9 kts 69°
2026-05-04 05:20 45.46172 -73.74003 107 ft 10 kts 42°
2026-05-04 05:20 45.46428 -73.73682 109 ft 90 kts 41°
2026-05-04 05:21 45.47090 -73.72810 131 ft 168 kts 40°
2026-05-04 05:21 45.48067 -73.71533 673 ft 214 kts 41°
2026-05-04 05:21 45.48881 -73.69700 1915 ft 222 kts 66°
2026-05-04 05:21 45.49252 -73.67534 2758 ft 234 kts 83°
2026-05-04 05:22 45.49238 -73.66160 2971 ft 249 kts 99°
2026-05-04 05:22 45.49235 -73.66134 2972 ft 249 kts 100°
2026-05-04 05:22 45.48628 -73.63678 3405 ft 268 kts 119°
2026-05-04 05:22 45.47597 -73.61433 4207 ft 274 kts 130°
2026-05-04 05:23 45.46387 -73.59379 5161 ft 275 kts 134°
2026-05-04 05:23 45.45081 -73.57364 6159 ft 277 kts 135°
2026-05-04 05:23 45.43753 -73.55342 7091 ft 282 kts 135°
2026-05-04 05:23 45.42408 -73.53253 7976 ft 289 kts 134°
2026-05-04 05:24 45.41055 -73.51085 8854 ft 296 kts 133°
2026-05-04 05:24 45.39690 -73.48843 9751 ft 304 kts 133°
2026-05-04 05:24 45.38301 -73.46521 10417 ft 317 kts 132°
2026-05-04 05:24 45.36822 -73.44035 10747 ft 341 kts 131°